SCP
0 0 0 0 0 0 0 0 0 0 0 0 0 0 0 0 0 0 0 0 0 0 0 0 0 0 1 1 1 1 1 1 1 1 1 1 1 1 1 1 1 1 1 1
0 0 0 0 0 0 0 0 0 0 0 0 0 0 0 0 0 0 0 0 0 0 0 0 0 1 1 1 1 1 1 1 1 1 1 1 1 1 1 1 1 1 1 1
0 0 0 0 0 0 0 0 0 0 0 0 0 0 0 0 0 0 0 0 0 0 0 0 1 1 1 1 1 1 1 1 1 1 1 1 1 1 1 1 1 1 1 1
0 0 0 0 0 0 0 0 0 0 0 0 0 0 0 0 0 0 0 0 0 0 0 0 1 1 1 1 1 1 1 1 1 1 1 1 1 1 1 1 1 1 0 1
0 0 0 0 0 0 0 0 0 0 0 0 0 0 0 0 0 0 0 0 0 0 0 0 1 1 1 1 1 1 1 1 1 1 1 2 2 1 1 1 1 0 0 0
0 0 0 0 0 0 0 0 0 0 0 0 0 0 1 1 0 0 0 0 0 0 0 1 1 1 1 1 1 1 1 1 1 1 1 2 2 1 1 1 1 0 0 0
0 0 0 0 0 0 0 0 0 0 0 0 0 0 1 0 0 0 0 0 0 0 1 1 1 1 1 1 1 1 1 1 1 1 1 1 1 1 1 1 1 1 1 0
0 0 0 0 0 0 0 0 0 0 0 0 0 0 0 0 0 0 0 0 0 0 1 1 1 1 1 1 1 1 1 1 1 1 1 1 1 1 1 1 1 1 1 1
0 0 0 0 0 0 0 0 0 0 0 0 0 0 0 0 0 0 0 0 0 1 1 1 1 1 1 1 2 2 1 1 1 1 1 1 1 1 1 1 1 1 1 1
0 0 0 0 1 0 0 0 0 0 0 0 0 0 0 0 0 0 0 0 0 1 1 1 1 1 1 1 2 2 1 1 1 1 1 1 1 1 1 1 1 1 1 1
0 0 0 0 0 0 0 0 0 0 0 0 0 0 0 0 0 0 0 0 0 0 1 1 1 1 1 1 1 1 1 1 1 1 1 1 1 1 1 1 1 0 1 1
0 0 0 0 0 0 0 0 0 0 0 0 0 0 0 0 0 0 0 0 0 0 0 0 1 1 1 1 1 1 1 1 1 1 1 1 1 1 1 1 1 0 0 0
0 0 0 0 0 0 0 0 0 0 0 0 0 0 0 0 0 0 0 0 0 0 0 0 0 1 1 1 1 1 1 1 1 1 1 1 1 1 1 1 1 0 0 0
0 0 0 0 0 0 0 0 0 0 0 0 0 0 0 0 0 0 0 0 0 0 0 0 0 0 1 1 1 1 1 1 1 1 1 0 1 1 1 1 1 1 0 0
0 0 0 0 0 0 0 0 0 0 0 0 0 0 0 0 0 0 0 0 0 0 0 0 0 0 0 0 0 1 1 1 1 1 1 1 1 1 1 1 1 1 1 1
0 0 0 0 0 0 0 0 0 0 0 0 0 0 0 0 0 0 0 0 0 0 0 0 0 0 0 0 0 1 1 1 1 1 1 1 1 1 1 1 1 1 1 1
0 0 0 0 0 0 0 0 0 0 0 0 0 0 0 0 0 0 0 0 0 0 0 0 0 0 0 0 0 0 1 1 1 1 1 1 1 1 0 0 0 1 0 0
0 0 0 0 0 0 0 0 0 0 0 0 0 0 0 0 0 0 0 0 0 0 0 0 0 0 0 0 0 1 1 1 1 1 1 1 1 1 0 0 0 1 0 0
0 0 0 0 0 0 0 0 0 0 0 0 0 0 0 0 0 0 0 0 0 0 0 0 0 0 0 0 0 1 1 1 1 1 1 1 1 1 1 0 0 1 1 1
0 0 0 0 0 0 0 0 0 0 0 0 0 0 0 0 0 0 0 0 0 0 0 0 0 0 0 0 0 1 1 1 1 1 1 1 1 1 1 1 1 1 1 1
0 0 0 0 0 0 0 0 0 0 0 0 0 0 0 0 0 0 0 0 0 0 0 0 0 0 0 0 0 1 1 1 1 1 1 1 1 1 1 1 1 1 1 1
0 0 0 0 0 0 0 0 0 0 0 0 0 0 0 0 0 0 0 0 0 0 0 0 0 0 0 0 1 1 1 1 1 1 1 1 1 1 1 1 1 1 1 1
0 0 0 0 0 0 0 0 0 0 0 0 0 0 0 0 0 0 0 0 0 0 0 0 0 0 0 0 1 1 1 1 1 1 2 2 1 1 1 1 1 1 0 0
0 0 0 0 0 0 0 0 0 0 0 0 0 0 0 0 0 0 0 0 0 0 0 0 0 0 0 0 0 0 1 1 1 1 1 1 1 1 1 1 1 1 1 1
0 0 0 0 0 0 0 0 0 0 0 0 0 0 0 0 0 0 0 0 0 0 0 0 0 0 0 0 0 0 0 0 0 0 1 1 1 1 1 1 0 0 0 0
0 0 0 0 0 0 0 0 0 0 0 0 0 0 0 0 0 0 0 0 0 0 0 0 0 0 0 0 0 0 0 0 0 0 0 0 0 0 0 0 0 0 0 0
Wind_Speed
5 6 6 5 5 4 4 5 4 2 2 3 4 3 2 1 2 2 2 3 4 4 4 4 4 4 4 4 4 4 4 4 4 3 3 2 2 2 1 1 1 1 1 1
7 7 4 3 4 6 6 6 4 3 2 3 4 4 3 2 3 3 3 3 4 4 4 3 4 4 4 4 4 5 5 4 4 3 3 2 2 1 1 1 1 1 1 1
8 2 4 6 6 6 6 6 4 3 3 5 5 5 5 3 3 2 2 3 3 3 3 4 4 3 3 4 5 5 5 5 5 4 3 2 2 2 2 2 1 1 1 1
4 3 4 6 6 7 6 4 5 5 6 4 5 5 3 3 3 2 3 3 3 3 3 3 3 4 4 3 3 4 5 4 4 4 4 4 3 2 2 1 1 2 1 2
4 3 5 6 5 6 4 3 6 7 7 7 6 7 2 3 3 2 1 2 2 2 3 3 3 3 3 3 2 3 4 4 4 4 4 4 3 2 2 2 2 2 2 1
2 2 3 4 3 4 4 5 5 6 6 8 5 7 3 2 1 1 1 1 2 2 2 2 2 2 2 3 2 2 2 3 3 4 4 4 4 3 3 3 2 2 1 1
5 4 2 2 4 5 6 6 5 6 6 4 1 5 2 1 1 2 3 2 1 1 2 2 2 2 2 3 2 2 2 2 3 4 4 4 4 3 3 3 3 2 2 1
6 6 4 2 5 5 7 8 6 5 5 3 4 5 1 2 1 2 2 1 0 1 2 2 2 2 2 3 3 2 2 2 2 3 4 3 3 2 2 3 3 3 2 2
4 3 2 0 2 5 6 7 6 7 6 7 5 3 3 1 0 2 2 2 1 1 1 2 2 2 2 2 2 3 3 2 2 2 3 3 3 3 3 3 3 2 2 2
4 4 2 1 3 1 4 3 5 6 6 7 6 6 2 1 2 2 2 2 2 1 1 1 2 2 1 2 2 2 2 3 3 3 2 2 3 3 3 3 3 3 2 2
5 6 3 4 5 4 5 5 5 5 6 6 6 2 3 1 2 3 2 2 2 1 1 1 1 1 1 2 1 2 2 2 2 3 2 2 2 3 3 2 3 3 3 3
4 5 5 5 2 3 5 6 7 7 6 7 6 2 4 2 2 2 2 2 2 1 1 1 1 1 1 1 1 1 1 2 2 2 2 2 2 2 2 2 3 3 3 3
3 6 5 6 7 5 5 5 6 7 7 7 8 3 3 1 2 2 2 2 2 1 1 1 1 1 1 1 1 1 1 2 2 2 2 2 2 2 2 3 3 3 3 3
4 6 7 6 3 3 6 6 7 8 8 8 9 7 3 2 3 3 3 2 2 1 1 1 0 0 1 1 1 1 1 1 2 2 2 2 2 2 2 2 3 3 3 3
4 6 6 6 5 5 7 7 8 10 10 10 8 7 5 4 4 4 3 3 2 2 2 2 1 1 1 1 1 1 1 1 2 2 2 2 2 2 2 1 2 2 2 3
4 5 5 6 5 5 7 8 9 10 9 10 8 7 5 4 3 3 3 3 3 3 3 3 2 2 2 1 1 1 1 2 2 3 3 2 1 1 2 1 1 2 2 2
4 5 6 6 4 6 7 6 7 7 5 7 8 6 3 3 3 4 3 3 3 4 3 3 3 3 2 2 2 2 2 2 2 3 2 2 2 1 1 1 1 1 2 2
5 5 4 4 5 9 0 2 1 4 4 4 4 3 3 3 3 2 2 3 4 4 4 3 3 4 3 2 2 1 1 1 1 1 1 1 2 1 1 1 2 2 2 2
4 5 4 5 6 6 2 2 2 4 5 3 3 3 2 2 2 1 3 4 4 4 4 4 3 3 3 2 2 1 0 0 0 1 1 2 2 2 2 2 3 2 2 3
2 4 5 5 6 5 0 1 1 4 4 1 2 3 2 3 4 2 3 4 4 4 4 3 2 2 3 2 1 1 1 1 1 1 1 2 2 2 3 3 3 2 3 3
4 5 6 7 7 3 2 1 2 5 2 1 3 3 3 4 4 2 2 3 3 3 3 2 2 2 3 2 1 1 1 2 2 2 1 1 2 2 2 2 2 2 2 3
5 5 5 5 7 3 3 3 3 2 3 2 3 3 3 3 2 2 2 2 2 2 2 2 2 2 3 2 1 1 2 2 2 2 1 1 1 1 1 1 2 2 2 3
4 4 3 4 2 2 1 2 2 3 3 3 3 3 3 2 2 1 1 2 2 2 2 2 2 2 2 2 2 2 3 3 2 2 2 2 1 1 1 1 2 2 2 2
3 3 4 5 4 3 3 3 3 3 4 4 3 3 2 2 2 1 1 1 1 1 2 1 1 2 2 3 2 2 2 2 2 2 2 2 2 1 1 1 1 2 2 2
3 4 5 6 4 3 3 3 3 3 2 2 2 2 2 2 1 1 0 1 1 1 1 1 1 2 2 2 2 2 2 2 2 2 2 2 2 2 2 1 1 2 2 2
5 5 5 5 3 4 3 2 2 2 2 1 1 1 1 1 1 0 0 1 1 1 1 1 1 1 2 2 3 2 2 2 2 1 2 2 1 2 2 2 1 1 1 2
Wind_Direction
186 206 207 202 217 246 230 229 231 214 188 228 232 245 247 184 199 223 211 199 199 198 182 176 178 181 180 181 181 169 171 170 170 172 180 177 171 169 149 125 105 130 147 152
194 212 219 199 195 211 223 227 224 195 180 243 244 251 260 244 225 243 248 220 205 199 180 180 190 189 190 190 198 190 181 177 179 184 186 169 160 168 143 147 154 149 147 146
213 192 184 193 191 211 222 234 234 235 226 222 252 247 224 205 210 220 244 245 218 211 195 182 184 193 197 201 200 200 189 182 181 176 176 162 158 176 173 175 156 136 153 154
218 195 193 205 209 231 227 231 239 232 243 238 244 267 228 210 206 223 233 234 232 218 209 190 182 186 191 198 209 205 190 183 178 176 182 185 189 191 198 181 151 141 145 153
183 190 209 220 227 235 243 238 234 241 254 258 238 258 236 187 235 237 231 231 236 222 209 194 186 188 185 174 186 213 193 182 176 182 181 198 197 194 183 177 164 162 147 152
191 186 243 246 233 224 198 207 208 221 240 247 247 252 257 205 263 308 296 264 258 233 194 183 164 158 157 157 162 185 196 187 179 184 191 195 198 194 184 184 181 173 151 162
196 185 188 229 200 188 215 228 228 221 220 236 197 248 248 68 9 320 320 303 286 219 174 163 152 152 156 159 163 165 171 181 187 190 194 196 201 201 197 190 190 188 177 178
216 196 179 219 238 223 218 234 249 260 256 253 214 239 171 93 359 331 326 325 101 151 152 153 154 150 150 158 170 175 173 176 175 190 198 198 192 197 208 204 197 199 199 191
242 207 132 203 261 245 220 228 262 272 267 262 234 212 190 150 302 6 17 22 39 100 139 136 135 142 144 156 172 182 177 169 163 175 185 194 193 193 203 206 207 203 204 204
265 243 173 165 191 156 270 228 221 239 255 255 246 239 243 215 307 348 1 359 14 50 104 108 116 129 135 129 150 173 180 177 168 173 179 175 190 195 201 202 204 208 207 215
253 243 200 197 220 213 186 204 232 240 252 264 262 236 49 332 340 338 355 355 1 38 68 100 111 116 122 116 138 163 169 172 173 178 180 177 180 194 195 206 206 217 209 212
230 254 234 219 205 291 241 231 233 245 239 247 265 271 74 20 357 341 350 13 18 15 54 79 108 118 112 129 147 164 174 173 180 187 190 193 182 187 192 204 214 221 221 218
204 236 227 202 193 194 218 227 238 250 252 244 248 242 100 34 350 351 351 11 17 356 52 86 105 129 123 136 170 179 200 188 180 186 190 199 206 203 208 212 219 226 224 223
248 243 251 256 276 221 222 223 227 234 244 250 250 260 264 314 330 337 338 342 350 3 22 28 55 157 162 175 202 189 204 198 185 189 198 202 221 227 230 223 222 225 226 226
242 248 249 267 281 264 250 236 225 235 251 259 265 268 292 310 312 316 325 337 335 349 347 338 325 313 253 215 229 210 194 183 186 194 210 219 229 228 223 225 224 228 234 234
238 245 242 242 237 249 254 249 237 239 249 253 262 273 301 314 317 322 328 337 331 330 333 334 321 305 288 274 258 227 215 195 195 203 212 218 225 218 217 222 232 229 237 240
224 233 239 238 224 246 243 248 238 230 240 252 258 270 297 310 314 315 325 327 333 333 328 326 324 318 305 295 280 257 236 214 208 210 210 208 218 213 236 247 251 255 246 239
236 237 246 250 232 237 149 64 243 238 253 272 273 294 304 304 308 314 335 338 344 344 336 328 325 328 323 313 302 285 267 231 217 217 217 211 219 222 231 246 260 266 262 251
244 234 232 239 246 252 221 202 234 244 259 274 262 281 314 319 278 298 8 350 340 339 334 331 330 331 333 329 323 297 246 245 228 229 233 234 234 231 238 252 271 282 283 271
186 234 239 234 247 252 180 101 274 249 246 196 274 279 284 271 265 306 357 336 330 339 338 340 348 356 357 352 350 3 15 5 350 326 285 255 246 240 243 252 265 273 276 276
190 205 227 240 248 258 36 101 189 228 324 19 284 283 263 265 305 336 327 330 330 338 343 348 3 5 359 352 352 4 14 5 356 340 323 291 270 263 262 263 262 264 270 277
219 214 216 227 235 243 107 166 213 319 8 332 299 290 267 283 319 331 336 339 339 346 350 357 12 17 10 3 2 7 1 356 349 349 343 322 314 307 289 271 268 263 260 268
235 251 252 238 255 27 157 238 303 326 311 313 303 295 271 269 279 292 314 335 346 350 348 348 13 27 18 8 8 15 358 347 347 351 346 330 329 335 321 302 279 267 264 268
215 254 244 244 250 265 264 267 278 283 290 304 304 287 261 266 266 279 313 335 360 3 355 2 33 35 23 14 21 16 358 351 354 352 341 334 327 328 320 316 298 289 286 285
224 207 233 245 259 265 257 267 283 292 285 284 297 290 268 254 249 269 313 9 8 6 15 20 26 28 24 21 20 7 352 349 348 345 337 335 333 319 317 327 333 315 321 329
216 224 236 254 258 253 262 291 292 276 270 263 267 290 288 249 214 250 48 34 18 17 15 13 22 31 28 27 22 11 351 335 327 324 330 331 323 318 323 325 333 44 307 354